Wildwood, NJ

7:39 PM EDT on April 24, 2018 (GMT -0400)
Cape May County

Weather History for KWWD - December, 2012

Change the Weather History Date:

Saturday, December 22, 2012

  Actual Average Record
Temperature  
Mean Temperature 38 °F -  
Max Temperature 42 °F 42 °F 69 °F (2013)
Min Temperature 35 °F 29 °F 19 °F (1996)
Degree Days  
Heating Degree Days 26    
Moisture  
Dew Point 23 °F    
Average Humidity 50    
Maximum Humidity 56    
Minimum Humidity 39    
Precipitation  
Precipitation 0.00 in - - ()
Sea Level Pressure  
Sea Level Pressure 29.73 in    
Wind  
Wind Speed 19 mph (WNW)    
Max Wind Speed 25 mph    
Max Gust Speed 37 mph    
Visibility 10 miles    
Events      
Averages and records for this station are not official NWS values.
T = Trace of Precipitation, MM = Missing Value Source: NWS Daily Summary

Daily Weather History Graph

Daily Weather History Graph

Search for Another Location

Airport or City:

Astronomy

Dec. 22, 2012 Rise Set
Actual Time 7:15 AM EST 4:41 PM EST
Civil Twilight 6:45 AM EST 5:11 PM EST
Nautical Twilight 6:12 AM EST 5:45 PM EST
Astronomical Twilight 5:39 AM EST 6:17 PM EST
Moon 12:56 PM EST (12/22) 2:00 AM EST (12/22)
Length of Visible Light 10h 25m
Length of Day
9h 25m
Waxing Gibbous, 73% of the Moon is Illuminated
Dec 22
Waxing Gibbous
Dec 28
Full
Jan 4
Last Quarter
Jan 11
New
Jan 18
First Quarter

Hourly Weather History & Observations

Time (EST) Temp. Windchill Dew Point Humidity Pressure Visibility Wind Dir Wind Speed Gust Speed Precip Events Conditions
12:15 AM 39.2 °F 30.2 °F 23.0 °F 52% 29.49 in 10.0 mi West 17.3 mph 28.8 mph N/A   Mostly Cloudy
12:35 AM - - - N/A% 29.49 in 10.0 mi West 18.4 mph 28.8 mph N/A   Mostly Cloudy
12:55 AM 39.2 °F 29.0 °F 23.0 °F 52% 29.50 in 10.0 mi West 21.9 mph 29.9 mph N/A   Overcast
1:15 AM 39.2 °F 30.2 °F 24.8 °F 56% 29.50 in 10.0 mi West 17.3 mph 27.6 mph N/A   Mostly Cloudy
1:35 AM 39.2 °F 29.8 °F 24.8 °F 56% 29.51 in 10.0 mi West 18.4 mph 28.8 mph N/A   Scattered Clouds
1:55 AM 39.2 °F 30.2 °F 24.8 °F 56% 29.51 in 10.0 mi West 17.3 mph 29.9 mph N/A   Mostly Cloudy
2:15 AM 39.2 °F 30.5 °F 24.8 °F 56% 29.52 in 10.0 mi West 16.1 mph 31.1 mph N/A   Mostly Cloudy
2:35 AM - - - N/A% 29.52 in 10.0 mi West 25.3 mph 34.5 mph N/A   Partly Cloudy
2:55 AM 39.2 °F 29.8 °F 24.8 °F 56% 29.53 in 10.0 mi West 18.4 mph 29.9 mph N/A   Mostly Cloudy
3:15 AM - - - N/A% 29.52 in 10.0 mi West 16.1 mph 28.8 mph N/A   Scattered Clouds
3:35 AM 39.2 °F 29.0 °F 24.8 °F 56% 29.53 in 10.0 mi West 21.9 mph 31.1 mph N/A   Partly Cloudy
3:55 AM - - - N/A% 29.53 in 10.0 mi West 20.7 mph 33.4 mph N/A   Mostly Cloudy
4:15 AM 39.2 °F 29.3 °F 24.8 °F 56% 29.54 in 10.0 mi West 20.7 mph 29.9 mph N/A   Scattered Clouds
4:35 AM 39.2 °F 30.5 °F 24.8 °F 56% 29.55 in 10.0 mi West 16.1 mph 28.8 mph N/A   Mostly Cloudy
4:55 AM 39.2 °F 30.2 °F 24.8 °F 56% 29.55 in 10.0 mi West 17.3 mph 27.6 mph N/A   Overcast
5:15 AM 39.2 °F 30.5 °F 24.8 °F 56% 29.56 in 10.0 mi West 16.1 mph 31.1 mph N/A   Overcast
5:35 AM 39.2 °F 29.3 °F 24.8 °F 56% 29.57 in 10.0 mi West 20.7 mph 28.8 mph N/A   Overcast
5:55 AM 39.2 °F 29.6 °F 24.8 °F 56% 29.58 in 10.0 mi West 19.6 mph 31.1 mph N/A   Overcast
6:15 AM 39.2 °F 28.5 °F 24.8 °F 56% 29.59 in 10.0 mi West 24.2 mph 31.1 mph N/A   Overcast
6:35 AM 39.2 °F 29.6 °F 24.8 °F 56% 29.61 in 10.0 mi West 19.6 mph 27.6 mph N/A   Overcast
6:55 AM 39.2 °F 29.8 °F 24.8 °F 56% 29.61 in 10.0 mi West 18.4 mph 29.9 mph N/A   Overcast
7:15 AM 39.2 °F 29.0 °F 24.8 °F 56% 29.62 in 10.0 mi West 21.9 mph 29.9 mph N/A   Overcast
7:35 AM 39.2 °F 30.2 °F 23.0 °F 52% 29.64 in 10.0 mi West 17.3 mph 29.9 mph N/A   Overcast
7:55 AM 39.2 °F 29.6 °F 23.0 °F 52% 29.64 in 10.0 mi West 19.6 mph 26.5 mph N/A   Overcast
8:15 AM 39.2 °F 30.5 °F 23.0 °F 52% 29.65 in 10.0 mi WNW 16.1 mph 28.8 mph N/A   Overcast
8:35 AM 39.2 °F 30.5 °F 23.0 °F 52% 29.67 in 10.0 mi West 16.1 mph 28.8 mph N/A   Overcast
8:55 AM 39.2 °F 29.8 °F 24.8 °F 56% 29.68 in 10.0 mi WNW 18.4 mph 26.5 mph N/A   Overcast
9:15 AM 41.0 °F 32.5 °F 23.0 °F 49% 29.69 in 10.0 mi West 17.3 mph 26.5 mph N/A   Overcast
9:35 AM 41.0 °F 31.6 °F 23.0 °F 49% 29.70 in 10.0 mi WNW 20.7 mph 32.2 mph N/A   Mostly Cloudy
9:55 AM 42.8 °F 35.1 °F 24.8 °F 49% 29.71 in 10.0 mi WNW 16.1 mph 27.6 mph N/A   Mostly Cloudy
10:15 AM 42.8 °F 35.1 °F 23.0 °F 46% 29.71 in 10.0 mi West 16.1 mph 29.9 mph N/A   Overcast
10:35 AM 42.8 °F 33.3 °F 23.0 °F 46% 29.71 in 10.0 mi West 24.2 mph 31.1 mph N/A   Overcast
10:55 AM 42.8 °F 33.1 °F 24.8 °F 49% 29.71 in 10.0 mi West 25.3 mph 34.5 mph N/A   Overcast
11:15 AM 42.8 °F 34.0 °F 24.8 °F 49% 29.72 in 10.0 mi WNW 20.7 mph 32.2 mph N/A   Overcast
11:35 AM 41.0 °F 31.9 °F 23.0 °F 49% 29.72 in 10.0 mi WNW 19.6 mph 33.4 mph N/A   Overcast
11:55 AM 41.0 °F 32.2 °F 23.0 °F 49% 29.73 in 10.0 mi WNW 18.4 mph 33.4 mph N/A   Overcast
12:15 PM 42.8 °F 34.3 °F 24.8 °F 49% 29.73 in 10.0 mi WNW 19.6 mph 29.9 mph N/A   Overcast
12:35 PM 41.0 °F 31.4 °F 23.0 °F 49% 29.73 in 10.0 mi WNW 21.9 mph 29.9 mph N/A   Overcast
12:55 PM 41.0 °F 31.6 °F 23.0 °F 49% 29.74 in 10.0 mi WNW 20.7 mph 34.5 mph N/A   Overcast
1:15 PM 42.8 °F 34.3 °F 21.2 °F 42% 29.74 in 10.0 mi WNW 19.6 mph 34.5 mph N/A   Overcast
1:35 PM 42.8 °F 34.8 °F 21.2 °F 42% 29.75 in 10.0 mi WNW 17.3 mph 31.1 mph N/A   Mostly Cloudy
1:55 PM 42.8 °F 34.5 °F 21.2 °F 42% 29.75 in 10.0 mi WNW 18.4 mph 36.8 mph N/A   Mostly Cloudy
2:15 PM 42.8 °F 33.8 °F 21.2 °F 42% 29.76 in 10.0 mi WNW 21.9 mph 28.8 mph N/A   Mostly Cloudy
2:55 PM 42.8 °F 34.5 °F 21.2 °F 42% 29.77 in 10.0 mi WNW 18.4 mph 29.9 mph N/A   Partly Cloudy
3:15 PM 42.8 °F 34.0 °F 19.4 °F 39% 29.79 in 10.0 mi WNW 20.7 mph 32.2 mph N/A   Mostly Cloudy
3:35 PM 42.8 °F 34.0 °F 21.2 °F 42% 29.79 in 10.0 mi West 20.7 mph 29.9 mph N/A   Mostly Cloudy
3:55 PM 42.8 °F 35.4 °F 21.2 °F 42% 29.81 in 10.0 mi WNW 15.0 mph 35.7 mph N/A   Scattered Clouds
4:15 PM 41.0 °F 31.6 °F 21.2 °F 45% 29.82 in 10.0 mi WNW 20.7 mph 32.2 mph N/A   Partly Cloudy
4:35 PM 41.0 °F 33.5 °F 19.4 °F 42% 29.83 in 10.0 mi WNW 13.8 mph 27.6 mph N/A   Partly Cloudy
4:55 PM 41.0 °F 31.6 °F 21.2 °F 45% 29.84 in 10.0 mi WNW 20.7 mph 27.6 mph N/A   Scattered Clouds
5:35 PM 39.2 °F 28.5 °F 19.4 °F 45% 29.86 in 10.0 mi WNW 24.2 mph 33.4 mph N/A   Partly Cloudy
5:55 PM 39.2 °F 30.2 °F 19.4 °F 45% 29.87 in 10.0 mi WNW 17.3 mph 31.1 mph N/A   Partly Cloudy
6:15 PM 39.2 °F 29.8 °F 21.2 °F 49% 29.88 in 10.0 mi WNW 18.4 mph 29.9 mph N/A   Partly Cloudy
6:35 PM 39.2 °F 30.5 °F 21.2 °F 49% 29.89 in 10.0 mi WNW 16.1 mph 23.0 mph N/A   Scattered Clouds
6:55 PM 39.2 °F 29.6 °F 21.2 °F 49% 29.90 in 10.0 mi WNW 19.6 mph 32.2 mph N/A   Scattered Clouds
7:15 PM 39.2 °F 31.2 °F 21.2 °F 49% 29.91 in 10.0 mi WNW 13.8 mph 26.5 mph N/A   Scattered Clouds
7:35 PM 39.2 °F 29.8 °F 21.2 °F 49% 29.91 in 10.0 mi WNW 18.4 mph 26.5 mph N/A   Scattered Clouds
7:55 PM 37.4 °F 28.5 °F 21.2 °F 52% 29.92 in 10.0 mi WNW 15.0 mph 24.2 mph N/A   Partly Cloudy
8:15 PM 37.4 °F 27.5 °F 21.2 °F 52% 29.93 in 10.0 mi WNW 18.4 mph 27.6 mph N/A   Partly Cloudy
8:35 PM 37.4 °F 27.8 °F 19.4 °F 48% 29.94 in 10.0 mi WNW 17.3 mph 28.8 mph N/A   Clear
8:55 PM 37.4 °F 28.2 °F 21.2 °F 52% 29.95 in 10.0 mi WNW 16.1 mph 23.0 mph N/A   Clear
9:15 PM 37.4 °F 28.2 °F 21.2 °F 52% 29.95 in 10.0 mi WNW 16.1 mph 24.2 mph N/A   Clear
9:35 PM 37.4 °F 28.2 °F 21.2 °F 52% 29.96 in 10.0 mi WNW 16.1 mph 21.9 mph N/A   Clear
9:55 PM 37.4 °F 28.2 °F 21.2 °F 52% 29.96 in 10.0 mi West 16.1 mph 20.7 mph N/A   Clear
10:15 PM 37.4 °F 30.3 °F 21.2 °F 52% 29.97 in 10.0 mi West 10.4 mph 20.7 mph N/A   Partly Cloudy
10:35 PM 37.4 °F 28.5 °F 21.2 °F 52% 29.98 in 10.0 mi West 15.0 mph 21.9 mph N/A   Partly Cloudy
10:55 PM 35.6 °F 26.2 °F 21.2 °F 56% 29.98 in 10.0 mi West 15.0 mph 23.0 mph N/A   Partly Cloudy
11:15 PM 35.6 °F 25.2 °F 19.4 °F 52% 29.98 in 10.0 mi West 18.4 mph 24.2 mph N/A   Clear
11:35 PM 35.6 °F 27.1 °F 21.2 °F 56% 29.99 in 10.0 mi West 12.7 mph 20.7 mph N/A   Clear
11:55 PM 35.6 °F 27.1 °F 21.2 °F 56% 29.99 in 10.0 mi West 12.7 mph 20.7 mph N/A   Clear